Burlington, IA

2:19 PM CST on January 21, 2017 (GMT -0600)
Burlington

Weather History for KBRL - October, 2011

Change the Weather History Date:

Thursday, October 13, 2011

  Actual Average Record
Temperature  
Mean Temperature 62 °F 56 °F  
Max Temperature 72 °F 67 °F 95 °F (1899)
Min Temperature 52 °F 45 °F 20 °F (1909)
Degree Days  
Heating Degree Days 3 9  
Month to date heating degree days 38 99  
Since 1 July heating degree days 176 170  
Cooling Degree Days 0 1  
Month to date cooling degree days 24 16  
Year to date cooling degree days 1244 1198  
Growing Degree Days 13 (Base 50)    
Moisture  
Dew Point 51 °F    
Average Humidity 69    
Maximum Humidity 100    
Minimum Humidity 37    
Precipitation  
Precipitation T in 0.09 in 1.24 in (2014)
Month to date precipitation 0.89 1.38  
Year to date precipitation 27.01 32.15  
Sea Level Pressure  
Sea Level Pressure 29.62 in    
Wind  
Wind Speed 9 mph (WNW)    
Max Wind Speed 21 mph    
Max Gust Speed 31 mph    
Visibility 10 miles    
Events      
T = Trace of Precipitation, MM = Missing Value Source: NWS Daily Summary

Daily Weather History Graph

Daily Weather History Graph

Search for Another Location

Airport or City:

Trip Planner

Search our weather history database for the weather conditions in past years. The results will help you decide how hot, cold, wet, or windy it might be!

Date:

Astronomy

Oct. 13, 2011 Rise Set
Actual Time 7:13 AM CDT 6:27 PM CDT
Civil Twilight 6:45 AM CDT 6:55 PM CDT
Nautical Twilight 6:14 AM CDT 7:26 PM CDT
Astronomical Twilight 5:42 AM CDT 7:58 PM CDT
Moon 7:02 PM CDT (10/13) 8:46 AM CDT (10/13)
Length of Visible Light 12h 09m
Length of Day
11h 14m
Full, 98% of the Moon is Illuminated
Oct 13
Full
Oct 19
Last Quarter
Oct 26
New
Nov 2
First Quarter
Nov 10
Full

Hourly Weather History & Observations

Time (CDT) Temp. Dew Point Humidity Pressure Visibility Wind Dir Wind Speed Gust Speed Precip Events Conditions
12:53 AM 57.0 °F 55.9 °F 96% 29.62 in 10.0 mi West 4.6 mph - N/A   Mostly Cloudy
1:27 AM 57.2 °F 55.4 °F 94% 29.62 in 10.0 mi West 4.6 mph - N/A   Scattered Clouds
1:53 AM 55.9 °F 54.0 °F 93% 29.61 in 10.0 mi West 3.5 mph - N/A   Clear
2:53 AM 55.0 °F 54.0 °F 96% 29.60 in 9.0 mi West 3.5 mph - N/A   Partly Cloudy
3:35 AM 55.4 °F 53.6 °F 94% 29.61 in 7.0 mi West 3.5 mph - N/A   Mostly Cloudy
3:53 AM 55.9 °F 55.0 °F 97% 29.60 in 6.0 mi Variable 3.5 mph - N/A   Mostly Cloudy
4:01 AM 55.4 °F 55.4 °F 100% 29.60 in 6.0 mi West 3.5 mph - N/A   Mostly Cloudy
4:53 AM 57.0 °F 55.0 °F 93% 29.60 in 7.0 mi WNW 5.8 mph - N/A   Overcast
5:05 AM 57.2 °F 55.4 °F 94% 29.60 in 7.0 mi WNW 5.8 mph - N/A   Overcast
5:53 AM 57.9 °F 55.9 °F 93% 29.60 in 10.0 mi West 5.8 mph - N/A   Overcast
6:12 AM 57.2 °F 55.4 °F 94% 29.60 in 10.0 mi WNW 5.8 mph - 0.00 in   Overcast
6:27 AM 57.2 °F 55.4 °F 94% 29.60 in 10.0 mi WNW 6.9 mph - 0.00 in   Overcast
6:46 AM 57.2 °F 55.4 °F 94% 29.61 in 10.0 mi WNW 6.9 mph - 0.00 in   Overcast
6:53 AM 57.9 °F 55.9 °F 93% 29.60 in 10.0 mi WNW 5.8 mph - 0.00 in   Overcast
7:31 AM 57.2 °F 55.4 °F 94% 29.60 in 10.0 mi WNW 10.4 mph - N/A   Overcast
7:53 AM 57.9 °F 55.0 °F 90% 29.61 in 10.0 mi WNW 11.5 mph 18.4 mph N/A   Overcast
8:29 AM 57.2 °F 55.4 °F 94% 29.62 in 10.0 mi NW 9.2 mph 23.0 mph N/A   Overcast
8:53 AM 57.9 °F 55.0 °F 90% 29.62 in 10.0 mi WNW 12.7 mph 18.4 mph N/A   Overcast
9:05 AM 57.2 °F 55.4 °F 94% 29.63 in 10.0 mi NW 11.5 mph 21.9 mph N/A   Overcast
9:35 AM 59.0 °F 55.4 °F 88% 29.63 in 10.0 mi NW 12.7 mph 20.7 mph N/A   Mostly Cloudy
9:53 AM 60.1 °F 54.0 °F 80% 29.63 in 10.0 mi NNW 12.7 mph 19.6 mph N/A   Mostly Cloudy
10:03 AM 60.8 °F 53.6 °F 77% 29.64 in 10.0 mi NNW 8.1 mph 17.3 mph N/A   Scattered Clouds
10:53 AM 63.0 °F 54.0 °F 72% 29.64 in 10.0 mi NW 11.5 mph 19.6 mph N/A   Partly Cloudy
11:53 AM 66.9 °F 53.1 °F 61% 29.63 in 10.0 mi NW 12.7 mph 18.4 mph N/A   Partly Cloudy
12:53 PM 69.1 °F 51.1 °F 53% 29.62 in 10.0 mi NNW 15.0 mph 24.2 mph N/A   Scattered Clouds
1:53 PM 71.1 °F 48.9 °F 45% 29.61 in 10.0 mi NW 15.0 mph 24.2 mph N/A   Partly Cloudy
2:53 PM 68.0 °F 46.9 °F 47% 29.61 in 10.0 mi NW 16.1 mph 28.8 mph N/A   Partly Cloudy
3:53 PM 70.0 °F 46.0 °F 42% 29.62 in 10.0 mi NW 8.1 mph 21.9 mph N/A   Scattered Clouds
4:53 PM 69.1 °F 44.1 °F 40% 29.62 in 10.0 mi WNW 12.7 mph 20.7 mph N/A   Clear
5:53 PM 66.9 °F 39.9 °F 37% 29.63 in 10.0 mi NW 15.0 mph 26.5 mph N/A   Scattered Clouds
6:53 PM 64.4 °F 42.8 °F 45% 29.64 in 10.0 mi WNW 10.4 mph - N/A   Clear
7:53 PM 61.0 °F 42.1 °F 50% 29.66 in 10.0 mi WNW 4.6 mph - N/A   Clear
8:53 PM 59.0 °F 43.0 °F 55% 29.67 in 10.0 mi WNW 5.8 mph - N/A   Clear
9:53 PM 57.0 °F 43.0 °F 59% 29.68 in 10.0 mi WNW 5.8 mph - N/A   Clear
10:53 PM 55.9 °F 43.0 °F 62% 29.69 in 10.0 mi WNW 6.9 mph - N/A   Clear
11:53 PM 54.0 °F 43.0 °F 66% 29.69 in 10.0 mi WNW 5.8 mph - N/A   Clear